TimeAWST,TemperatureF,Dew PointF,Humidity,Sea Level PressureIn,VisibilityMPH,Wind Direction,Wind SpeedMPH,Gust SpeedMPH,PrecipitationIn,Events,Conditions,WindDirDegrees,DateUTC
12:00 AM,82,41,14,29.87,,West,16.1,,,,,280,2012-10-04 16:00:00
12:00 AM,82.4,41.0,23,29.92,-9999.0,West,16.1,-,N/A,,Unknown,280,2012-10-04 16:00:00
1:00 AM,78.8,42.8,28,29.92,-9999.0,NW,8.1,-,N/A,,Unknown,310,2012-10-04 17:00:00
2:00 AM,79,46,21,29.86,,West,8.1,,,,,280,2012-10-04 18:00:00
2:00 AM,78.8,46.4,32,29.89,-9999.0,West,8.1,-,N/A,,Unknown,280,2012-10-04 18:00:00
3:00 AM,79,47,22,29.85,,West,12.7,,,,,270,2012-10-04 19:00:00
3:00 AM,78.8,48.2,34,29.89,-9999.0,West,12.7,-,N/A,,Unknown,270,2012-10-04 19:00:00
4:00 AM,78.8,48.2,34,29.89,-9999.0,West,13.8,-,N/A,,Unknown,260,2012-10-04 20:00:00
5:00 AM,79,47,22,29.86,,West,12.7,,,,,260,2012-10-04 21:00:00
5:00 AM,78.8,46.4,32,29.89,-9999.0,West,12.7,-,N/A,,Unknown,260,2012-10-04 21:00:00
6:00 AM,79,47,22,29.87,,WSW,9.2,,,,,250,2012-10-04 22:00:00
6:00 AM,78.8,46.4,32,29.92,-9999.0,WSW,9.2,-,N/A,,Unknown,250,2012-10-04 22:00:00
7:00 AM,80.6,48.2,32,29.92,-9999.0,WSW,15.0,-,N/A,,Unknown,250,2012-10-04 23:00:00
8:00 AM,86,47,17,29.91,,WSW,16.1,,,,,240,2012-10-05 00:00:00
8:00 AM,86.0,48.2,27,29.95,-9999.0,WSW,16.1,-,N/A,,Unknown,240,2012-10-05 00:00:00
9:00 AM,92,41,9,29.91,,WSW,17.3,,,,,250,2012-10-05 01:00:00
9:00 AM,91.4,41.0,17,29.95,-9999.0,WSW,17.3,-,N/A,,Unknown,250,2012-10-05 01:00:00
10:00 AM,95.0,42.8,16,29.95,-9999.0,WSW,13.8,-,N/A,,Unknown,250,2012-10-05 02:00:00
11:00 AM,99,35,5,29.88,,West,10.4,,,,,260,2012-10-05 03:00:00
11:00 AM,98.6,35.6,11,29.92,-9999.0,West,10.4,-,N/A,,Unknown,260,2012-10-05 03:00:00
12:00 PM,99,30,4,29.87,,NNE,8.1,,,,,30,2012-10-05 04:00:00
12:00 PM,98.6,30.2,9,29.92,-9999.0,NNE,8.1,-,N/A,,Unknown,30,2012-10-05 04:00:00
1:00 PM,98.6,30.2,9,29.89,-9999.0,NNW,6.9,-,N/A,,Unknown,340,2012-10-05 05:00:00
2:00 PM,99,30,4,29.83,,WNW,12.7,,,,,290,2012-10-05 06:00:00
2:00 PM,98.6,30.2,9,29.86,-9999.0,WNW,12.7,-,N/A,,Unknown,290,2012-10-05 06:00:00
3:00 PM,99,31,4,29.82,,WNW,10.4,,,,,290,2012-10-05 07:00:00
3:00 PM,98.6,30.2,9,29.86,-9999.0,WNW,10.4,-,N/A,,Unknown,290,2012-10-05 07:00:00
4:00 PM,98.6,30.2,9,29.86,-9999.0,WNW,4.6,-,N/A,,Unknown,300,2012-10-05 08:00:00
5:00 PM,96,28,4,29.83,,ESE,5.8,,,,,120,2012-10-05 09:00:00
5:00 PM,96.8,28.4,9,29.86,-9999.0,ESE,5.8,-,N/A,,Unknown,120,2012-10-05 09:00:00
6:00 PM,91,31,6,29.85,,SSE,4.6,,,,,150,2012-10-05 10:00:00
6:00 PM,91.4,32.0,12,29.89,-9999.0,SSE,4.6,-,N/A,,Unknown,150,2012-10-05 10:00:00
7:00 PM,87.8,33.8,15,29.92,-9999.0,Calm,Calm,-,N/A,,Unknown,0,2012-10-05 11:00:00
8:00 PM,88,31,6,29.88,,WNW,4.6,,,,,290,2012-10-05 12:00:00
8:00 PM,87.8,30.2,13,29.92,-9999.0,WNW,4.6,-,N/A,,Unknown,290,2012-10-05 12:00:00
9:00 PM,86.0,32.0,14,29.95,-9999.0,WNW,4.6,-,N/A,,Unknown,290,2012-10-05 13:00:00
10:00 PM,78.8,33.8,20,29.95,-9999.0,WNW,5.8,-,N/A,,Unknown,290,2012-10-05 14:00:00
11:00 PM,78,33,11,29.88,,NNW,3.5,,,,,330,2012-10-05 15:00:00
11:00 PM,78.8,33.8,20,29.92,-9999.0,NNW,3.5,-,N/A,,Unknown,330,2012-10-05 15:00:00